Time,TemperatureF,DewpointF,PressureIn,WindDirection,WindDirectionDegrees,WindSpeedMPH,WindSpeedGustMPH,Humidity,HourlyPrecipIn,Conditions,Clouds,dailyrainin,SoftwareType,DateUTC
2013-02-23 00:00:00,73.0,66.9,29.49,SSE,157,0.0,0.0,81,0.00,,,0.00,WUHU21623XXSP,2013-02-23 05:00:00,
2013-02-23 00:05:00,73.0,66.9,29.49,ESE,112,0.0,0.0,81,0.00,,,0.00,WUHU21623XXSP,2013-02-23 05:05:00,
2013-02-23 00:10:00,73.0,66.9,29.49,SSE,157,0.0,0.0,81,0.00,,,0.00,WUHU21623XXSP,2013-02-23 05:10:00,
2013-02-23 00:15:00,73.0,66.9,29.49,SSE,157,0.0,0.0,81,0.00,,,0.00,WUHU21623XXSP,2013-02-23 05:15:00,
2013-02-23 00:20:00,72.9,67.1,29.49,South,180,0.0,0.0,82,0.00,,,0.00,WUHU21623XXSP,2013-02-23 05:20:00,
2013-02-23 00:25:00,72.9,67.1,29.49,WSW,247,0.0,0.0,82,0.00,,,0.00,WUHU21623XXSP,2013-02-23 05:25:00,
2013-02-23 00:30:00,72.9,67.1,29.49,SSE,157,0.0,0.0,82,0.00,,,0.00,WUHU21623XXSP,2013-02-23 05:30:00,
2013-02-23 00:35:00,72.9,67.1,29.48,SSE,157,0.0,0.0,82,0.00,,,0.00,WUHU21623XXSP,2013-02-23 05:35:00,
2013-02-23 00:40:00,72.9,67.4,29.49,SSE,157,0.0,0.0,83,0.00,,,0.00,WUHU21623XXSP,2013-02-23 05:40:00,
2013-02-23 00:45:00,73.0,67.6,29.48,SSE,157,0.0,0.0,83,0.00,,,0.00,WUHU21623XXSP,2013-02-23 05:45:00,
2013-02-23 00:50:00,73.0,67.6,29.48,South,180,0.0,0.0,83,0.00,,,0.00,WUHU21623XXSP,2013-02-23 05:50:00,
2013-02-23 00:55:00,73.0,67.9,29.48,South,180,0.0,0.0,84,0.00,,,0.00,WUHU21623XXSP,2013-02-23 05:55:00,
2013-02-23 01:00:00,72.9,67.7,29.47,SE,135,0.0,0.0,84,0.00,,,0.00,WUHU21623XXSP,2013-02-23 06:00:00,
2013-02-23 01:05:00,72.9,67.7,29.48,South,180,0.0,0.0,84,0.00,,,0.00,WUHU21623XXSP,2013-02-23 06:05:00,
2013-02-23 01:10:00,72.9,67.7,29.47,SSE,157,0.0,0.0,84,0.00,,,0.00,WUHU21623XXSP,2013-02-23 06:10:00,
2013-02-23 01:15:00,72.9,67.7,29.47,SSE,157,0.0,0.0,84,0.00,,,0.00,WUHU21623XXSP,2013-02-23 06:15:00,
2013-02-23 01:20:00,72.9,68.1,29.48,SE,135,0.0,0.0,85,0.00,,,0.00,WUHU21623XXSP,2013-02-23 06:20:00,
2013-02-23 01:25:00,73.0,68.3,29.47,SE,135,0.0,0.0,85,0.00,,,0.00,WUHU21623XXSP,2013-02-23 06:25:00,
2013-02-23 01:30:00,73.0,68.3,29.47,ESE,112,0.0,0.0,85,0.00,,,0.00,WUHU21623XXSP,2013-02-23 06:30:00,
2013-02-23 01:35:00,73.0,68.3,29.47,South,180,0.0,0.0,85,0.00,,,0.00,WUHU21623XXSP,2013-02-23 06:35:00,
2013-02-23 01:40:00,73.2,68.1,29.46,SSE,157,0.0,0.0,84,0.00,,,0.00,WUHU21623XXSP,2013-02-23 06:40:00,
2013-02-23 01:45:00,73.2,68.1,29.46,South,180,0.0,0.0,84,0.00,,,0.00,WUHU21623XXSP,2013-02-23 06:45:00,
2013-02-23 01:50:00,73.2,68.1,29.46,SSE,157,0.0,0.0,84,0.00,,,0.00,WUHU21623XXSP,2013-02-23 06:50:00,
2013-02-23 01:55:00,73.2,67.8,29.46,East,90,0.0,0.0,83,0.00,,,0.00,WUHU21623XXSP,2013-02-23 06:55:00,
2013-02-23 02:00:00,73.4,67.9,29.46,SSE,157,0.0,0.0,83,0.00,,,0.00,WUHU21623XXSP,2013-02-23 07:00:00,
2013-02-23 02:05:00,73.4,67.9,29.46,SE,135,0.0,0.0,83,0.00,,,0.00,WUHU21623XXSP,2013-02-23 07:05:00,
2013-02-23 02:10:00,73.4,67.9,29.45,SSE,157,0.0,0.0,83,0.00,,,0.00,WUHU21623XXSP,2013-02-23 07:10:00,
2013-02-23 02:15:00,73.4,67.6,29.45,SE,135,0.0,0.0,82,0.00,,,0.00,WUHU21623XXSP,2013-02-23 07:15:00,
2013-02-23 02:20:00,73.2,67.4,29.45,SSE,157,0.0,0.0,82,0.00,,,0.00,WUHU21623XXSP,2013-02-23 07:20:00,
2013-02-23 02:25:00,73.2,67.8,29.45,SSE,157,0.0,0.0,83,0.00,,,0.00,WUHU21623XXSP,2013-02-23 07:25:00,
2013-02-23 02:30:00,73.2,67.8,29.45,South,180,0.0,0.0,83,0.00,,,0.00,WUHU21623XXSP,2013-02-23 07:30:00,
2013-02-23 02:35:00,73.2,67.8,29.44,ESE,112,0.0,0.0,83,0.00,,,0.00,WUHU21623XXSP,2013-02-23 07:35:00,
2013-02-23 02:40:00,73.2,67.8,29.44,SSE,157,0.0,0.0,83,0.00,,,0.00,WUHU21623XXSP,2013-02-23 07:40:00,
2013-02-23 02:45:00,73.2,67.8,29.44,South,180,0.0,0.0,83,0.00,,,0.00,WUHU21623XXSP,2013-02-23 07:45:00,
2013-02-23 02:50:00,73.0,67.6,29.44,South,180,0.0,0.0,83,0.00,,,0.00,WUHU21623XXSP,2013-02-23 07:50:00,
2013-02-23 02:55:00,73.0,67.6,29.44,SSE,157,0.0,0.0,83,0.00,,,0.00,WUHU21623XXSP,2013-02-23 07:55:00,
2013-02-23 03:00:00,73.0,67.6,29.44,SE,135,0.0,0.0,83,0.00,,,0.00,WUHU21623XXSP,2013-02-23 08:00:00,
2013-02-23 03:05:00,73.0,67.6,29.44,SSE,157,0.0,0.0,83,0.00,,,0.00,WUHU21623XXSP,2013-02-23 08:05:00,
2013-02-23 03:10:00,73.0,67.6,29.44,South,180,0.0,0.0,83,0.00,,,0.00,WUHU21623XXSP,2013-02-23 08:10:00,
2013-02-23 03:15:00,73.0,67.6,29.44,South,180,0.0,0.0,83,0.00,,,0.00,WUHU21623XXSP,2013-02-23 08:15:00,
2013-02-23 03:20:00,73.0,67.6,29.44,SSE,157,0.0,0.0,83,0.00,,,0.00,WUHU21623XXSP,2013-02-23 08:20:00,
2013-02-23 03:25:00,73.2,67.8,29.44,SSE,157,0.0,0.0,83,0.00,,,0.00,WUHU21623XXSP,2013-02-23 08:25:00,
2013-02-23 03:30:00,73.0,67.6,29.43,SSE,157,0.0,0.0,83,0.00,,,0.00,WUHU21623XXSP,2013-02-23 08:30:00,
2013-02-23 03:35:00,73.0,67.6,29.43,SE,135,0.0,0.0,83,0.00,,,0.00,WUHU21623XXSP,2013-02-23 08:35:00,
2013-02-23 03:40:00,73.0,67.6,29.43,SSE,157,0.0,0.0,83,0.00,,,0.00,WUHU21623XXSP,2013-02-23 08:40:00,
2013-02-23 03:45:00,73.0,67.6,29.43,SE,135,0.0,0.0,83,0.00,,,0.00,WUHU21623XXSP,2013-02-23 08:45:00,
2013-02-23 03:50:00,73.0,67.6,29.43,South,180,0.0,0.0,83,0.00,,,0.00,WUHU21623XXSP,2013-02-23 08:50:00,
2013-02-23 03:55:00,73.0,67.6,29.43,South,180,0.0,0.0,83,0.00,,,0.00,WUHU21623XXSP,2013-02-23 08:55:00,
2013-02-23 04:00:00,72.9,67.4,29.43,South,180,0.0,0.0,83,0.00,,,0.00,WUHU21623XXSP,2013-02-23 09:00:00,
2013-02-23 04:05:00,72.9,67.4,29.43,SSE,157,0.0,0.0,83,0.00,,,0.00,WUHU21623XXSP,2013-02-23 09:05:00,
2013-02-23 04:10:00,72.7,67.2,29.43,SE,135,0.0,0.0,83,0.00,,,0.00,WUHU21623XXSP,2013-02-23 09:10:00,
2013-02-23 04:15:00,72.7,66.9,29.43,SSW,202,0.0,0.0,82,0.00,,,0.00,WUHU21623XXSP,2013-02-23 09:15:00,
2013-02-23 04:20:00,72.7,66.9,29.43,SSE,157,0.0,0.0,82,0.00,,,0.00,WUHU21623XXSP,2013-02-23 09:20:00,
2013-02-23 04:25:00,72.7,66.9,29.43,SSE,157,0.0,0.0,82,0.00,,,0.00,WUHU21623XXSP,2013-02-23 09:25:00,
2013-02-23 04:30:00,72.7,66.9,29.43,SSE,157,0.0,0.0,82,0.00,,,0.00,WUHU21623XXSP,2013-02-23 09:30:00,
2013-02-23 04:35:00,72.5,66.7,29.43,SE,135,0.0,0.0,82,0.00,,,0.00,WUHU21623XXSP,2013-02-23 09:35:00,
2013-02-23 04:40:00,72.5,66.7,29.43,SSE,157,0.0,0.0,82,0.00,,,0.00,WUHU21623XXSP,2013-02-23 09:40:00,
2013-02-23 04:45:00,72.7,67.2,29.43,SSE,157,0.0,0.0,83,0.00,,,0.00,WUHU21623XXSP,2013-02-23 09:45:00,
2013-02-23 04:50:00,72.5,67.0,29.43,SSE,157,0.0,0.0,83,0.00,,,0.00,WUHU21623XXSP,2013-02-23 09:50:00,
2013-02-23 04:55:00,72.5,67.0,29.43,South,180,0.0,0.0,83,0.00,,,0.00,WUHU21623XXSP,2013-02-23 09:55:00,
2013-02-23 05:00:00,72.5,67.0,29.43,SSW,202,0.0,0.0,83,0.00,,,0.00,WUHU21623XXSP,2013-02-23 10:00:00,
2013-02-23 05:05:00,72.5,66.7,29.43,SSE,157,0.0,0.0,82,0.00,,,0.00,WUHU21623XXSP,2013-02-23 10:05:00,
2013-02-23 05:10:00,72.5,66.7,29.43,SSE,157,0.0,0.0,82,0.00,,,0.00,WUHU21623XXSP,2013-02-23 10:10:00,
2013-02-23 05:15:00,72.5,66.7,29.43,South,180,0.0,0.0,82,0.00,,,0.00,WUHU21623XXSP,2013-02-23 10:15:00,
2013-02-23 05:20:00,72.3,66.5,29.43,SSE,157,0.0,0.0,82,0.00,,,0.00,WUHU21623XXSP,2013-02-23 10:20:00,
2013-02-23 05:25:00,72.3,66.5,29.44,SSE,157,0.0,0.0,82,0.00,,,0.00,WUHU21623XXSP,2013-02-23 10:25:00,
2013-02-23 05:30:00,72.3,66.5,29.44,SSE,157,0.0,0.0,82,0.00,,,0.00,WUHU21623XXSP,2013-02-23 10:30:00,
2013-02-23 05:35:00,72.5,66.7,29.44,SSE,157,0.0,0.0,82,0.00,,,0.00,WUHU21623XXSP,2013-02-23 10:35:00,
2013-02-23 05:40:00,72.5,66.7,29.44,SSE,157,0.0,0.0,82,0.00,,,0.00,WUHU21623XXSP,2013-02-23 10:40:00,
2013-02-23 05:45:00,72.5,66.7,29.44,SSE,157,0.0,0.0,82,0.00,,,0.00,WUHU21623XXSP,2013-02-23 10:45:00,
2013-02-23 05:50:00,72.5,66.7,29.44,SSE,157,0.0,0.0,82,0.00,,,0.00,WUHU21623XXSP,2013-02-23 10:50:00,
2013-02-23 05:55:00,72.5,66.7,29.44,SSE,157,0.0,0.0,82,0.00,,,0.00,WUHU21623XXSP,2013-02-23 10:55:00,
2013-02-23 06:00:00,72.7,66.9,29.44,South,180,0.0,0.0,82,0.00,,,0.00,WUHU21623XXSP,2013-02-23 11:00:00,
2013-02-23 06:05:00,72.7,66.9,29.44,SSE,157,0.0,0.0,82,0.00,,,0.00,WUHU21623XXSP,2013-02-23 11:05:00,
2013-02-23 06:10:00,72.5,66.7,29.44,SSE,157,0.0,0.0,82,0.00,,,0.00,WUHU21623XXSP,2013-02-23 11:10:00,
2013-02-23 06:15:00,72.5,66.7,29.44,South,180,0.0,0.0,82,0.00,,,0.00,WUHU21623XXSP,2013-02-23 11:15:00,
2013-02-23 06:20:00,72.5,66.7,29.44,SSE,157,0.0,0.0,82,0.00,,,0.00,WUHU21623XXSP,2013-02-23 11:20:00,
2013-02-23 06:25:00,72.5,66.7,29.45,SSE,157,0.0,0.0,82,0.00,,,0.00,WUHU21623XXSP,2013-02-23 11:25:00,
2013-02-23 06:30:00,72.5,66.7,29.45,SE,135,0.0,0.0,82,0.00,,,0.00,WUHU21623XXSP,2013-02-23 11:30:00,
2013-02-23 06:35:00,72.3,66.5,29.45,South,180,0.0,0.0,82,0.00,,,0.00,WUHU21623XXSP,2013-02-23 11:35:00,
2013-02-23 06:40:00,72.3,66.5,29.45,South,180,0.0,0.0,82,0.00,,,0.00,WUHU21623XXSP,2013-02-23 11:40:00,
2013-02-23 06:45:00,72.3,66.5,29.45,SSW,202,0.0,0.0,82,0.00,,,0.00,WUHU21623XXSP,2013-02-23 11:45:00,
2013-02-23 06:50:00,72.3,66.5,29.44,SSE,157,0.0,0.0,82,0.00,,,0.00,WUHU21623XXSP,2013-02-23 11:50:00,
2013-02-23 06:55:00,72.3,66.5,29.44,SSW,202,0.0,0.0,82,0.00,,,0.00,WUHU21623XXSP,2013-02-23 11:55:00,
2013-02-23 07:00:00,72.3,66.5,29.45,South,180,0.0,0.0,82,0.00,,,0.00,WUHU21623XXSP,2013-02-23 12:00:00,
2013-02-23 07:05:00,72.3,66.5,29.45,SSE,157,0.0,0.0,82,0.00,,,0.00,WUHU21623XXSP,2013-02-23 12:05:00,
2013-02-23 07:10:00,72.3,66.5,29.45,South,180,0.0,0.0,82,0.00,,,0.00,WUHU21623XXSP,2013-02-23 12:10:00,
2013-02-23 07:15:00,72.3,66.5,29.45,SSE,157,0.0,0.0,82,0.00,,,0.00,WUHU21623XXSP,2013-02-23 12:15:00,
2013-02-23 07:20:00,72.3,66.5,29.45,South,180,0.0,0.0,82,0.00,,,0.00,WUHU21623XXSP,2013-02-23 12:20:00,
2013-02-23 07:25:00,72.5,66.4,29.45,SSE,157,0.0,0.0,81,0.00,,,0.00,WUHU21623XXSP,2013-02-23 12:25:00,
2013-02-23 07:30:00,72.7,66.5,29.45,South,180,0.0,0.0,81,0.00,,,0.00,WUHU21623XXSP,2013-02-23 12:30:00,
2013-02-23 07:35:00,73.0,66.9,29.45,SSE,157,0.0,0.0,81,0.00,,,0.00,WUHU21623XXSP,2013-02-23 12:35:00,
2013-02-23 07:40:00,73.2,66.7,29.45,SE,135,0.0,0.0,80,0.00,,,0.00,WUHU21623XXSP,2013-02-23 12:40:00,
2013-02-23 07:45:00,73.4,66.9,29.45,SSE,157,0.0,0.0,80,0.00,,,0.00,WUHU21623XXSP,2013-02-23 12:45:00,
2013-02-23 07:50:00,73.8,67.3,29.45,South,180,0.0,0.0,80,0.00,,,0.00,WUHU21623XXSP,2013-02-23 12:50:00,
2013-02-23 07:55:00,74.1,67.2,29.45,SSW,202,0.0,0.0,79,0.00,,,0.00,WUHU21623XXSP,2013-02-23 12:55:00,
2013-02-23 08:00:00,74.3,67.0,29.46,South,180,0.0,0.0,78,0.00,,,0.00,WUHU21623XXSP,2013-02-23 13:00:00,
2013-02-23 08:05:00,74.5,66.8,29.46,SSW,202,0.0,0.0,77,0.00,,,0.00,WUHU21623XXSP,2013-02-23 13:05:00,
2013-02-23 08:10:00,74.8,67.2,29.46,SE,135,0.0,0.0,77,0.00,,,0.00,WUHU21623XXSP,2013-02-23 13:10:00,
2013-02-23 08:15:00,75.0,67.0,29.46,SSE,157,0.0,0.0,76,0.00,,,0.00,WUHU21623XXSP,2013-02-23 13:15:00,
2013-02-23 08:20:00,75.4,67.3,29.46,SSW,202,0.0,0.0,76,0.00,,,0.00,WUHU21623XXSP,2013-02-23 13:20:00,
2013-02-23 08:25:00,75.4,66.9,29.46,SSE,157,0.0,0.0,75,0.00,,,0.00,WUHU21623XXSP,2013-02-23 13:25:00,
2013-02-23 08:30:00,75.6,67.1,29.46,SSW,202,0.0,0.0,75,0.00,,,0.00,WUHU21623XXSP,2013-02-23 13:30:00,
2013-02-23 08:35:00,76.8,67.9,29.46,SW,225,0.0,0.0,74,0.00,,,0.00,WUHU21623XXSP,2013-02-23 13:35:00,
2013-02-23 08:40:00,76.8,67.9,29.46,South,180,0.0,0.0,74,0.00,,,0.00,WUHU21623XXSP,2013-02-23 13:40:00,
2013-02-23 08:45:00,77.5,68.2,29.47,South,180,0.0,0.0,73,0.00,,,0.00,WUHU21623XXSP,2013-02-23 13:45:00,
2013-02-23 08:50:00,78.1,68.3,29.47,SE,135,0.0,0.0,72,0.00,,,0.00,WUHU21623XXSP,2013-02-23 13:50:00,
2013-02-23 08:55:00,78.4,68.2,29.47,SSW,202,0.0,0.0,71,0.00,,,0.00,WUHU21623XXSP,2013-02-23 13:55:00,
2013-02-23 09:00:00,78.4,68.2,29.47,SSE,157,0.0,0.0,71,0.00,,,0.00,WUHU21623XXSP,2013-02-23 14:00:00,
2013-02-23 09:05:00,77.7,67.6,29.48,SSE,157,0.0,0.0,71,0.00,,,0.00,WUHU21623XXSP,2013-02-23 14:05:00,
2013-02-23 09:10:00,77.5,67.4,29.47,South,180,0.0,0.0,71,0.00,,,0.00,WUHU21623XXSP,2013-02-23 14:10:00,
2013-02-23 09:15:00,77.7,68.0,29.48,South,180,0.0,0.0,72,0.00,,,0.00,WUHU21623XXSP,2013-02-23 14:15:00,
2013-02-23 09:20:00,77.7,68.0,29.48,South,180,0.0,0.0,72,0.00,,,0.00,WUHU21623XXSP,2013-02-23 14:20:00,
2013-02-23 09:25:00,77.4,68.0,29.48,South,180,0.0,0.0,73,0.00,,,0.00,WUHU21623XXSP,2013-02-23 14:25:00,
2013-02-23 09:30:00,77.5,68.2,29.48,South,180,0.0,0.0,73,0.00,,,0.00,WUHU21623XXSP,2013-02-23 14:30:00,
2013-02-23 09:35:00,78.6,68.8,29.48,South,180,0.0,0.0,72,0.00,,,0.00,WUHU21623XXSP,2013-02-23 14:35:00,
2013-02-23 09:40:00,78.6,68.4,29.48,South,180,0.0,0.0,71,0.00,,,0.00,WUHU21623XXSP,2013-02-23 14:40:00,
2013-02-23 09:45:00,78.6,68.4,29.48,South,180,0.0,0.0,71,0.00,,,0.00,WUHU21623XXSP,2013-02-23 14:45:00,
2013-02-23 09:50:00,78.6,68.4,29.48,SE,135,0.0,0.0,71,0.00,,,0.00,WUHU21623XXSP,2013-02-23 14:50:00,
2013-02-23 09:55:00,79.7,69.1,29.48,SSE,157,0.0,0.0,70,0.00,,,0.00,WUHU21623XXSP,2013-02-23 14:55:00,
2013-02-23 10:00:00,79.7,69.1,29.48,SSW,202,0.0,0.0,70,0.00,,,0.00,WUHU21623XXSP,2013-02-23 15:00:00,
2013-02-23 10:05:00,79.5,68.5,29.48,South,180,0.0,0.0,69,0.00,,,0.00,WUHU21623XXSP,2013-02-23 15:05:00,
2013-02-23 10:10:00,80.4,69.3,29.47,SSE,157,0.0,0.0,69,0.00,,,0.00,WUHU21623XXSP,2013-02-23 15:10:00,
2013-02-23 10:15:00,81.7,70.1,29.48,South,180,0.0,0.0,68,0.00,,,0.00,WUHU21623XXSP,2013-02-23 15:15:00,
2013-02-23 10:20:00,82.0,69.9,29.47,South,180,0.0,0.0,67,0.00,,,0.00,WUHU21623XXSP,2013-02-23 15:20:00,
2013-02-23 10:25:00,82.0,69.9,29.47,SSW,202,0.0,0.0,67,0.00,,,0.00,WUHU21623XXSP,2013-02-23 15:25:00,
2013-02-23 10:30:00,81.9,69.3,29.47,SSE,157,0.0,0.0,66,0.00,,,0.00,WUHU21623XXSP,2013-02-23 15:30:00,
2013-02-23 10:35:00,83.3,70.3,29.47,South,180,0.0,0.0,65,0.00,,,0.00,WUHU21623XXSP,2013-02-23 15:35:00,
2013-02-23 10:40:00,83.5,70.0,29.47,SSW,202,0.0,0.0,64,0.00,,,0.00,WUHU21623XXSP,2013-02-23 15:40:00,
2013-02-23 10:45:00,84.0,70.5,29.47,SSE,157,0.0,0.0,64,0.00,,,0.00,WUHU21623XXSP,2013-02-23 15:45:00,
2013-02-23 10:50:00,84.7,70.7,29.47,South,180,0.0,0.0,63,0.00,,,0.00,WUHU21623XXSP,2013-02-23 15:50:00,
2013-02-23 10:55:00,84.4,70.4,29.47,South,180,0.0,0.0,63,0.00,,,0.00,WUHU21623XXSP,2013-02-23 15:55:00,
2013-02-23 11:00:00,84.6,70.6,29.47,SE,135,0.0,0.0,63,0.00,,,0.00,WUHU21623XXSP,2013-02-23 16:00:00,
2013-02-23 11:05:00,84.4,70.4,29.47,SSE,157,0.0,0.0,63,0.00,,,0.00,WUHU21623XXSP,2013-02-23 16:05:00,
2013-02-23 11:10:00,84.4,70.4,29.47,SSE,157,0.0,0.0,63,0.00,,,0.00,WUHU21623XXSP,2013-02-23 16:10:00,
2013-02-23 11:15:00,84.7,70.3,29.46,SSE,157,0.0,0.0,62,0.00,,,0.00,WUHU21623XXSP,2013-02-23 16:15:00,
2013-02-23 11:20:00,85.3,70.3,29.46,SSE,157,0.0,0.0,61,0.00,,,0.00,WUHU21623XXSP,2013-02-23 16:20:00,
2013-02-23 11:25:00,85.5,70.5,29.46,SSE,157,0.0,0.0,61,0.00,,,0.00,WUHU21623XXSP,2013-02-23 16:25:00,
2013-02-23 11:30:00,85.6,70.6,29.46,SSE,157,0.0,0.0,61,0.00,,,0.00,WUHU21623XXSP,2013-02-23 16:30:00,
2013-02-23 11:35:00,86.2,71.2,29.46,South,180,0.0,0.0,61,0.00,,,0.00,WUHU21623XXSP,2013-02-23 16:35:00,
2013-02-23 11:40:00,85.8,70.8,29.45,South,180,0.0,0.0,61,0.00,,,0.00,WUHU21623XXSP,2013-02-23 16:40:00,
2013-02-23 11:45:00,86.2,70.7,29.45,SSE,157,0.0,0.0,60,0.00,,,0.00,WUHU21623XXSP,2013-02-23 16:45:00,
2013-02-23 11:50:00,85.6,70.6,29.45,SSE,157,0.0,0.0,61,0.00,,,0.00,WUHU21623XXSP,2013-02-23 16:50:00,
2013-02-23 11:55:00,86.5,71.1,29.45,South,180,0.0,0.0,60,0.00,,,0.00,WUHU21623XXSP,2013-02-23 16:55:00,
2013-02-23 12:00:00,87.3,71.8,29.45,SE,135,0.0,0.0,60,0.00,,,0.00,WUHU21623XXSP,2013-02-23 17:00:00,
2013-02-23 12:05:00,87.6,71.6,29.45,SSW,202,0.0,0.0,59,0.00,,,0.00,WUHU21623XXSP,2013-02-23 17:05:00,
2013-02-23 12:10:00,87.6,71.6,29.44,South,180,0.0,0.0,59,0.00,,,0.00,WUHU21623XXSP,2013-02-23 17:10:00,
2013-02-23 12:15:00,87.6,71.1,29.44,South,180,0.0,0.0,58,0.00,,,0.00,WUHU21623XXSP,2013-02-23 17:15:00,
2013-02-23 12:20:00,88.3,72.3,29.44,SSW,202,0.0,0.0,59,0.00,,,0.00,WUHU21623XXSP,2013-02-23 17:20:00,
2013-02-23 12:25:00,88.7,72.1,29.44,SSW,202,0.0,0.0,58,0.00,,,0.00,WUHU21623XXSP,2013-02-23 17:25:00,
2013-02-23 12:30:00,88.7,71.5,29.43,SSE,157,0.0,0.0,57,0.00,,,0.00,WUHU21623XXSP,2013-02-23 17:30:00,
2013-02-23 12:35:00,89.1,71.8,29.43,SSE,157,0.0,0.0,57,0.00,,,0.00,WUHU21623XXSP,2013-02-23 17:35:00,
2013-02-23 12:40:00,88.0,70.3,29.43,South,180,0.0,0.0,56,0.00,,,0.00,WUHU21623XXSP,2013-02-23 17:40:00,
2013-02-23 12:45:00,88.2,71.6,29.43,SSE,157,0.0,0.0,58,0.00,,,0.00,WUHU21623XXSP,2013-02-23 17:45:00,
2013-02-23 12:50:00,86.4,70.3,29.43,SSE,157,0.0,0.0,59,0.00,,,0.00,WUHU21623XXSP,2013-02-23 17:50:00,
2013-02-23 12:55:00,84.7,70.3,29.42,SSE,157,0.0,0.0,62,0.00,,,0.00,WUHU21623XXSP,2013-02-23 17:55:00,
2013-02-23 13:00:00,85.3,70.8,29.42,SSE,157,0.0,0.0,62,0.00,,,0.00,WUHU21623XXSP,2013-02-23 18:00:00,
2013-02-23 13:05:00,86.5,71.1,29.42,South,180,0.0,0.0,60,0.00,,,0.00,WUHU21623XXSP,2013-02-23 18:05:00,
2013-02-23 13:10:00,86.7,71.2,29.42,SSW,202,0.0,0.0,60,0.00,,,0.00,WUHU21623XXSP,2013-02-23 18:10:00,
2013-02-23 13:15:00,86.4,70.9,29.41,SSE,157,0.0,0.0,60,0.00,,,0.00,WUHU21623XXSP,2013-02-23 18:15:00,
2013-02-23 13:20:00,84.6,70.1,29.41,SSE,157,0.0,0.0,62,0.00,,,0.00,WUHU21623XXSP,2013-02-23 18:20:00,
2013-02-23 13:25:00,85.6,71.1,29.41,South,180,0.0,0.0,62,0.00,,,0.00,WUHU21623XXSP,2013-02-23 18:25:00,
2013-02-23 13:30:00,86.5,71.5,29.41,South,180,0.0,0.0,61,0.00,,,0.00,WUHU21623XXSP,2013-02-23 18:30:00,
2013-02-23 13:35:00,89.2,72.5,29.40,South,180,0.0,0.0,58,0.00,,,0.00,WUHU21623XXSP,2013-02-23 18:35:00,
2013-02-23 13:40:00,89.8,73.0,29.40,South,180,0.0,0.0,58,0.00,,,0.00,WUHU21623XXSP,2013-02-23 18:40:00,
2013-02-23 13:45:00,89.6,72.9,29.40,SSW,202,0.0,0.0,58,0.00,,,0.00,WUHU21623XXSP,2013-02-23 18:45:00,
2013-02-23 13:50:00,89.2,72.5,29.40,SSE,157,0.0,0.0,58,0.00,,,0.00,WUHU21623XXSP,2013-02-23 18:50:00,
2013-02-23 13:55:00,90.1,72.8,29.40,South,180,0.0,0.0,57,0.00,,,0.00,WUHU21623XXSP,2013-02-23 18:55:00,
2013-02-23 14:00:00,90.3,72.4,29.39,South,180,0.0,0.0,56,0.00,,,0.00,WUHU21623XXSP,2013-02-23 19:00:00,
2013-02-23 14:05:00,87.4,71.4,29.39,South,180,0.0,0.0,59,0.00,,,0.00,WUHU21623XXSP,2013-02-23 19:05:00,
2013-02-23 14:10:00,86.9,71.4,29.39,SSE,157,0.0,0.0,60,0.00,,,0.00,WUHU21623XXSP,2013-02-23 19:10:00,
2013-02-23 14:15:00,86.2,70.7,29.39,South,180,0.0,0.0,60,0.00,,,0.00,WUHU21623XXSP,2013-02-23 19:15:00,
2013-02-23 14:20:00,87.1,71.6,29.39,South,180,0.0,0.0,60,0.00,,,0.00,WUHU21623XXSP,2013-02-23 19:20:00,
2013-02-23 14:25:00,88.5,72.4,29.39,South,180,0.0,0.0,59,0.00,,,0.00,WUHU21623XXSP,2013-02-23 19:25:00,
2013-02-23 14:30:00,86.9,70.9,29.38,SSE,157,0.0,0.0,59,0.00,,,0.00,WUHU21623XXSP,2013-02-23 19:30:00,
2013-02-23 14:35:00,85.8,70.4,29.38,SSW,202,0.0,0.0,60,0.00,,,0.00,WUHU21623XXSP,2013-02-23 19:35:00,
2013-02-23 14:40:00,85.5,71.0,29.38,SSE,157,0.0,0.0,62,0.00,,,0.00,WUHU21623XXSP,2013-02-23 19:40:00,
2013-02-23 14:45:00,84.6,70.6,29.38,South,180,0.0,0.0,63,0.00,,,0.00,WUHU21623XXSP,2013-02-23 19:45:00,
2013-02-23 14:50:00,86.9,71.9,29.38,SSE,157,0.0,0.0,61,0.00,,,0.00,WUHU21623XXSP,2013-02-23 19:50:00,
2013-02-23 14:55:00,86.4,71.3,29.38,SSE,157,0.0,0.0,61,0.00,,,0.00,WUHU21623XXSP,2013-02-23 19:55:00,
2013-02-23 15:00:00,84.7,70.3,29.38,South,180,0.0,0.0,62,0.00,,,0.00,WUHU21623XXSP,2013-02-23 20:00:00,
2013-02-23 15:05:00,83.3,69.8,29.37,SSE,157,0.0,0.0,64,0.00,,,0.00,WUHU21623XXSP,2013-02-23 20:05:00,
2013-02-23 15:10:00,83.1,70.1,29.37,SW,225,0.0,0.0,65,0.00,,,0.00,WUHU21623XXSP,2013-02-23 20:10:00,
2013-02-23 15:15:00,82.9,69.9,29.37,SSE,157,0.0,0.0,65,0.00,,,0.00,WUHU21623XXSP,2013-02-23 20:15:00,
2013-02-23 15:20:00,82.6,70.0,29.37,SSE,157,0.0,0.0,66,0.00,,,0.00,WUHU21623XXSP,2013-02-23 20:20:00,
2013-02-23 15:25:00,82.8,70.2,29.37,SSE,157,0.0,0.0,66,0.00,,,0.00,WUHU21623XXSP,2013-02-23 20:25:00,
2013-02-23 15:30:00,82.6,70.0,29.37,SSE,157,0.0,0.0,66,0.00,,,0.00,WUHU21623XXSP,2013-02-23 20:30:00,
2013-02-23 15:35:00,81.7,70.1,29.37,SSE,157,0.0,0.0,68,0.00,,,0.00,WUHU21623XXSP,2013-02-23 20:35:00,
2013-02-23 15:40:00,81.7,70.1,29.37,SSE,157,0.0,0.0,68,0.00,,,0.00,WUHU21623XXSP,2013-02-23 20:40:00,
2013-02-23 15:45:00,82.6,70.9,29.37,SSW,202,0.0,0.0,68,0.00,,,0.00,WUHU21623XXSP,2013-02-23 20:45:00,
2013-02-23 15:50:00,84.0,71.0,29.37,South,180,0.0,0.0,65,0.00,,,0.00,WUHU21623XXSP,2013-02-23 20:50:00,
2013-02-23 15:55:00,83.5,70.4,29.37,South,180,0.0,0.0,65,0.00,,,0.00,WUHU21623XXSP,2013-02-23 20:55:00,
2013-02-23 16:00:00,84.0,71.0,29.37,SSE,157,0.0,0.0,65,0.00,,,0.00,WUHU21623XXSP,2013-02-23 21:00:00,
2013-02-23 16:05:00,83.1,70.5,29.37,SSE,157,0.0,0.0,66,0.00,,,0.00,WUHU21623XXSP,2013-02-23 21:05:00,
2013-02-23 16:10:00,84.0,71.0,29.37,ESE,112,0.0,0.0,65,0.00,,,0.00,WUHU21623XXSP,2013-02-23 21:10:00,
2013-02-23 16:15:00,84.4,71.3,29.37,South,180,0.0,0.0,65,0.00,,,0.00,WUHU21623XXSP,2013-02-23 21:15:00,
2013-02-23 16:20:00,84.2,70.7,29.37,SSE,157,0.0,0.0,64,0.00,,,0.00,WUHU21623XXSP,2013-02-23 21:20:00,
2013-02-23 16:25:00,83.5,70.4,29.37,SSE,157,0.0,0.0,65,0.00,,,0.00,WUHU21623XXSP,2013-02-23 21:25:00,
2013-02-23 16:30:00,82.8,70.2,29.37,SSE,157,0.0,0.0,66,0.00,,,0.00,WUHU21623XXSP,2013-02-23 21:30:00,
2013-02-23 16:35:00,81.3,69.7,29.37,SSW,202,0.0,0.0,68,0.00,,,0.00,WUHU21623XXSP,2013-02-23 21:35:00,
2013-02-23 16:40:00,80.8,69.7,29.37,South,180,0.0,0.0,69,0.00,,,0.00,WUHU21623XXSP,2013-02-23 21:40:00,
2013-02-23 16:45:00,80.4,69.8,29.37,SSE,157,0.0,0.0,70,0.00,,,0.00,WUHU21623XXSP,2013-02-23 21:45:00,
2013-02-23 16:50:00,80.4,70.2,29.37,SSE,157,0.0,0.0,71,0.00,,,0.00,WUHU21623XXSP,2013-02-23 21:50:00,
2013-02-23 16:55:00,81.1,70.5,29.36,South,180,0.0,0.0,70,0.00,,,0.00,WUHU21623XXSP,2013-02-23 21:55:00,
2013-02-23 17:00:00,81.7,70.5,29.37,SSE,157,0.0,0.0,69,0.00,,,0.00,WUHU21623XXSP,2013-02-23 22:00:00,
2013-02-23 17:05:00,81.7,70.5,29.36,South,180,0.0,0.0,69,0.00,,,0.00,WUHU21623XXSP,2013-02-23 22:05:00,
2013-02-23 17:10:00,81.3,70.2,29.36,SSW,202,0.0,0.0,69,0.00,,,0.00,WUHU21623XXSP,2013-02-23 22:10:00,
2013-02-23 17:15:00,81.3,70.2,29.36,SSW,202,0.0,0.0,69,0.00,,,0.00,WUHU21623XXSP,2013-02-23 22:15:00,
2013-02-23 17:20:00,81.1,70.0,29.37,SSE,157,0.0,0.0,69,0.00,,,0.00,WUHU21623XXSP,2013-02-23 22:20:00,
2013-02-23 17:25:00,80.4,69.8,29.36,South,180,0.0,0.0,70,0.00,,,0.00,WUHU21623XXSP,2013-02-23 22:25:00,
2013-02-23 17:30:00,80.2,70.0,29.37,SSE,157,0.0,0.0,71,0.00,,,0.00,WUHU21623XXSP,2013-02-23 22:30:00,
2013-02-23 17:35:00,79.9,70.1,29.37,SSE,157,0.0,0.0,72,0.00,,,0.00,WUHU21623XXSP,2013-02-23 22:35:00,
2013-02-23 17:40:00,79.5,69.7,29.37,SSE,157,0.0,0.0,72,0.00,,,0.00,WUHU21623XXSP,2013-02-23 22:40:00,
2013-02-23 17:45:00,79.2,69.7,29.37,SSE,157,0.0,0.0,73,0.00,,,0.00,WUHU21623XXSP,2013-02-23 22:45:00,
2013-02-23 17:50:00,78.6,69.6,29.37,SSE,157,0.0,0.0,74,0.00,,,0.00,WUHU21623XXSP,2013-02-23 22:50:00,
2013-02-23 17:55:00,78.4,69.8,29.36,SSE,157,0.0,0.0,75,0.00,,,0.00,WUHU21623XXSP,2013-02-23 22:55:00,
2013-02-23 18:00:00,78.1,69.5,29.36,SSW,202,0.0,0.0,75,0.00,,,0.00,WUHU21623XXSP,2013-02-23 23:00:00,
2013-02-23 18:05:00,77.9,69.3,29.36,South,180,0.0,0.0,75,0.00,,,0.00,WUHU21623XXSP,2013-02-23 23:05:00,
2013-02-23 18:10:00,77.9,69.7,29.36,South,180,0.0,0.0,76,0.00,,,0.00,WUHU21623XXSP,2013-02-23 23:10:00,
2013-02-23 18:15:00,77.7,69.5,29.37,South,180,0.0,0.0,76,0.00,,,0.00,WUHU21623XXSP,2013-02-23 23:15:00,
2013-02-23 18:20:00,77.5,69.7,29.37,SSE,157,0.0,0.0,77,0.00,,,0.00,WUHU21623XXSP,2013-02-23 23:20:00,
2013-02-23 18:25:00,77.4,69.5,29.37,South,180,0.0,0.0,77,0.00,,,0.00,WUHU21623XXSP,2013-02-23 23:25:00,
2013-02-23 18:30:00,77.2,69.4,29.37,SSW,202,0.0,0.0,77,0.00,,,0.00,WUHU21623XXSP,2013-02-23 23:30:00,
2013-02-23 18:35:00,77.2,69.7,29.37,South,180,0.0,0.0,78,0.00,,,0.00,WUHU21623XXSP,2013-02-23 23:35:00,
2013-02-23 18:40:00,77.0,69.6,29.37,South,180,0.0,0.0,78,0.00,,,0.00,WUHU21623XXSP,2013-02-23 23:40:00,
2013-02-23 18:45:00,76.8,69.8,29.38,SSW,202,0.0,0.0,79,0.00,,,0.00,WUHU21623XXSP,2013-02-23 23:45:00,
2013-02-23 18:50:00,76.8,69.8,29.38,SSE,157,0.0,0.0,79,0.00,,,0.00,WUHU21623XXSP,2013-02-23 23:50:00,
2013-02-23 18:55:00,76.8,69.8,29.38,SSE,157,0.0,0.0,79,0.00,,,0.00,WUHU21623XXSP,2013-02-23 23:55:00,
2013-02-23 19:00:00,76.8,69.8,29.38,SSE,157,0.0,0.0,79,0.00,,,0.00,WUHU21623XXSP,2013-02-24 00:00:00,
2013-02-23 19:05:00,76.8,69.8,29.38,SSE,157,0.0,0.0,79,0.00,,,0.00,WUHU21623XXSP,2013-02-24 00:05:00,
2013-02-23 19:10:00,76.8,69.8,29.38,South,180,0.0,0.0,79,0.00,,,0.00,WUHU21623XXSP,2013-02-24 00:10:00,
2013-02-23 19:15:00,76.8,69.8,29.39,SSE,157,0.0,0.0,79,0.00,,,0.00,WUHU21623XXSP,2013-02-24 00:15:00,
2013-02-23 19:20:00,76.8,69.8,29.39,SSE,157,0.0,0.0,79,0.00,,,0.00,WUHU21623XXSP,2013-02-24 00:20:00,
2013-02-23 19:25:00,76.8,69.8,29.38,SSE,157,0.0,0.0,79,0.00,,,0.00,WUHU21623XXSP,2013-02-24 00:25:00,
2013-02-23 19:30:00,76.8,69.8,29.39,SSE,157,0.0,0.0,79,0.00,,,0.00,WUHU21623XXSP,2013-02-24 00:30:00,
2013-02-23 19:35:00,76.8,69.8,29.40,SSE,157,0.0,0.0,79,0.00,,,0.00,WUHU21623XXSP,2013-02-24 00:35:00,
2013-02-23 19:40:00,76.8,69.8,29.40,South,180,0.0,0.0,79,0.00,,,0.00,WUHU21623XXSP,2013-02-24 00:40:00,
2013-02-23 19:45:00,76.8,69.8,29.40,SSE,157,0.0,0.0,79,0.00,,,0.00,WUHU21623XXSP,2013-02-24 00:45:00,
2013-02-23 19:50:00,76.8,69.8,29.40,South,180,0.0,0.0,79,0.00,,,0.00,WUHU21623XXSP,2013-02-24 00:50:00,
2013-02-23 19:55:00,76.8,69.4,29.40,SSE,157,0.0,0.0,78,0.00,,,0.00,WUHU21623XXSP,2013-02-24 00:55:00,
2013-02-23 20:00:00,76.8,69.4,29.40,South,180,0.0,0.0,78,0.00,,,0.00,WUHU21623XXSP,2013-02-24 01:00:00,
2013-02-23 20:05:00,76.8,69.4,29.40,South,180,0.0,0.0,78,0.00,,,0.00,WUHU21623XXSP,2013-02-24 01:05:00,
2013-02-23 20:10:00,76.8,69.4,29.40,South,180,0.0,0.0,78,0.00,,,0.00,WUHU21623XXSP,2013-02-24 01:10:00,
2013-02-23 20:15:00,76.6,69.2,29.40,South,180,0.0,0.0,78,0.00,,,0.00,WUHU21623XXSP,2013-02-24 01:15:00,
2013-02-23 20:20:00,76.6,69.2,29.40,South,180,0.0,0.0,78,0.00,,,0.00,WUHU21623XXSP,2013-02-24 01:20:00,
2013-02-23 20:25:00,76.6,69.2,29.41,South,180,0.0,0.0,78,0.00,,,0.00,WUHU21623XXSP,2013-02-24 01:25:00,
2013-02-23 20:30:00,76.6,69.2,29.41,SSE,157,0.0,0.0,78,0.00,,,0.00,WUHU21623XXSP,2013-02-24 01:30:00,
2013-02-23 20:35:00,76.6,69.6,29.41,SSE,157,0.0,0.0,79,0.00,,,0.00,WUHU21623XXSP,2013-02-24 01:35:00,
2013-02-23 20:40:00,76.5,69.5,29.41,South,180,0.0,0.0,79,0.00,,,0.00,WUHU21623XXSP,2013-02-24 01:40:00,
2013-02-23 20:45:00,76.5,69.5,29.41,South,180,0.0,0.0,79,0.00,,,0.00,WUHU21623XXSP,2013-02-24 01:45:00,
2013-02-23 20:50:00,76.5,69.5,29.41,South,180,0.0,0.0,79,0.00,,,0.00,WUHU21623XXSP,2013-02-24 01:50:00,
2013-02-23 20:55:00,76.3,69.3,29.41,SSE,157,0.0,0.0,79,0.00,,,0.00,WUHU21623XXSP,2013-02-24 01:55:00,
2013-02-23 21:00:00,76.5,69.5,29.41,South,180,0.0,0.0,79,0.00,,,0.00,WUHU21623XXSP,2013-02-24 02:00:00,
2013-02-23 21:05:00,76.5,69.5,29.41,South,180,0.0,0.0,79,0.00,,,0.00,WUHU21623XXSP,2013-02-24 02:05:00,
2013-02-23 21:10:00,76.5,69.5,29.42,South,180,0.0,0.0,79,0.00,,,0.00,WUHU21623XXSP,2013-02-24 02:10:00,
2013-02-23 21:15:00,76.3,69.3,29.42,SW,225,0.0,0.0,79,0.00,,,0.00,WUHU21623XXSP,2013-02-24 02:15:00,
2013-02-23 21:20:00,76.3,69.3,29.42,SSW,202,0.0,0.0,79,0.00,,,0.00,WUHU21623XXSP,2013-02-24 02:20:00,
2013-02-23 21:25:00,76.3,69.3,29.42,South,180,0.0,0.0,79,0.00,,,0.00,WUHU21623XXSP,2013-02-24 02:25:00,
2013-02-23 21:30:00,76.3,69.3,29.42,South,180,0.0,0.0,79,0.00,,,0.00,WUHU21623XXSP,2013-02-24 02:30:00,
2013-02-23 21:35:00,76.3,69.3,29.42,South,180,0.0,0.0,79,0.00,,,0.00,WUHU21623XXSP,2013-02-24 02:35:00,
2013-02-23 21:40:00,76.3,69.3,29.42,South,180,0.0,0.0,79,0.00,,,0.00,WUHU21623XXSP,2013-02-24 02:40:00,
2013-02-23 21:45:00,76.1,69.5,29.42,South,180,0.0,0.0,80,0.00,,,0.00,WUHU21623XXSP,2013-02-24 02:45:00,
2013-02-23 21:50:00,75.9,69.4,29.42,South,180,0.0,0.0,80,0.00,,,0.00,WUHU21623XXSP,2013-02-24 02:50:00,
2013-02-23 21:55:00,75.9,69.4,29.42,SSE,157,0.0,0.0,80,0.00,,,0.00,WUHU21623XXSP,2013-02-24 02:55:00,
2013-02-23 22:00:00,75.9,69.4,29.42,South,180,0.0,0.0,80,0.00,,,0.00,WUHU21623XXSP,2013-02-24 03:00:00,
2013-02-23 22:05:00,75.7,69.2,29.42,South,180,0.0,0.0,80,0.00,,,0.00,WUHU21623XXSP,2013-02-24 03:05:00,
2013-02-23 22:10:00,75.7,69.5,29.42,South,180,0.0,0.0,81,0.00,,,0.00,WUHU21623XXSP,2013-02-24 03:10:00,
2013-02-23 22:15:00,75.6,69.4,29.42,SSW,202,0.0,0.0,81,0.00,,,0.00,WUHU21623XXSP,2013-02-24 03:15:00,
2013-02-23 22:20:00,75.6,69.4,29.42,South,180,0.0,0.0,81,0.00,,,0.00,WUHU21623XXSP,2013-02-24 03:20:00,
2013-02-23 22:25:00,75.6,69.4,29.42,South,180,0.0,0.0,81,0.00,,,0.00,WUHU21623XXSP,2013-02-24 03:25:00,
2013-02-23 22:30:00,75.4,69.2,29.42,SSW,202,0.0,0.0,81,0.00,,,0.00,WUHU21623XXSP,2013-02-24 03:30:00,
2013-02-23 22:35:00,75.4,69.2,29.42,SSW,202,0.0,0.0,81,0.00,,,0.00,WUHU21623XXSP,2013-02-24 03:35:00,
2013-02-23 22:40:00,75.0,68.9,29.42,SSW,202,0.0,0.0,81,0.00,,,0.00,WUHU21623XXSP,2013-02-24 03:40:00,
2013-02-23 22:45:00,75.0,68.9,29.42,SSE,157,0.0,0.0,81,0.00,,,0.00,WUHU21623XXSP,2013-02-24 03:45:00,
2013-02-23 22:50:00,75.0,68.9,29.42,SSE,157,0.0,0.0,81,0.00,,,0.00,WUHU21623XXSP,2013-02-24 03:50:00,
2013-02-23 22:55:00,75.0,68.9,29.42,SSE,157,0.0,0.0,81,0.00,,,0.00,WUHU21623XXSP,2013-02-24 03:55:00,
2013-02-23 23:00:00,75.0,69.2,29.42,SSE,157,0.0,0.0,82,0.00,,,0.00,WUHU21623XXSP,2013-02-24 04:00:00,
2013-02-23 23:05:00,75.0,69.2,29.42,SSE,157,0.0,0.0,82,0.00,,,0.00,WUHU21623XXSP,2013-02-24 04:05:00,
2013-02-23 23:10:00,74.8,69.0,29.42,SSE,157,0.0,0.0,82,0.00,,,0.00,WUHU21623XXSP,2013-02-24 04:10:00,
2013-02-23 23:15:00,74.8,69.0,29.42,SSE,157,0.0,0.0,82,0.00,,,0.00,WUHU21623XXSP,2013-02-24 04:15:00,
2013-02-23 23:20:00,74.7,68.9,29.42,SSE,157,0.0,0.0,82,0.00,,,0.00,WUHU21623XXSP,2013-02-24 04:20:00,
2013-02-23 23:25:00,74.5,68.7,29.42,SSE,157,0.0,0.0,82,0.00,,,0.00,WUHU21623XXSP,2013-02-24 04:25:00,
2013-02-23 23:30:00,74.5,68.7,29.42,SSE,157,0.0,0.0,82,0.00,,,0.00,WUHU21623XXSP,2013-02-24 04:30:00,
2013-02-23 23:35:00,74.3,68.8,29.42,SSE,157,0.0,0.0,83,0.00,,,0.00,WUHU21623XXSP,2013-02-24 04:35:00,
2013-02-23 23:40:00,74.1,68.7,29.42,SSE,157,0.0,0.0,83,0.00,,,0.00,WUHU21623XXSP,2013-02-24 04:40:00,
2013-02-23 23:45:00,74.1,68.7,29.42,SSE,157,0.0,0.0,83,0.00,,,0.00,WUHU21623XXSP,2013-02-24 04:45:00,
2013-02-23 23:50:00,73.9,68.5,29.42,SSE,157,0.0,0.0,83,0.00,,,0.00,WUHU21623XXSP,2013-02-24 04:50:00,
2013-02-23 23:55:00,73.9,68.5,29.42,SSE,157,0.0,0.0,83,0.00,,,0.00,WUHU21623XXSP,2013-02-24 04:55:00,